Terminal Aerodrome Forecast
Issued by NWS

Home | Current Version | Previous Version | Text Only | Print | Product List | Glossary On
Versions: 1 2 3 4 5 6 7 8 9 10 11 12 13 14
000
FTUS45 KFGZ 242300
TAFPGA
TAF
KPGA 242320Z 2500/2524 VRB06KT P6SM FEW250
     FM251600 22010G16KT P6SM FEW250
     FM252000 21012G22KT P6SM FEW250=

USA.gov is the U.S. government's official web portal to all federal, state and local government web resources and services.